Hourly Data Report for September 21, 2017

All times are specified in Local Standard Time (LST). Add 1 hour to adjust for Daylight Saving Time where and when it is observed.

SATURNA ISLAND CS
BRITISH COLUMBIA

48°47'02.067" N
123°02'41.082" W
24.40 m
1017101
71473
WEZ

Download Data

Hourly Data (September 2017)
Hourly Data Report for September 21, 2017
Temp Definition
°C
Dew Point Temp Definition
°C
Rel Hum Definition
%
Wind Dir Definition
10's deg

Wind Spd Definition
km/h
Visibility Definition
km
Stn Press Definition
kPa
Hmdx Definition


Wind Chill Definition


Weather Definition


TIME
00:00 10.6 8.6 87 19 7   100.65     LegendNANA
01:00 10.3 8.2 87 19 2   100.71     LegendNANA
02:00 10.3 8.2 87 6 8   100.75     LegendNANA
03:00 11.0 8.7 86 14 15   100.81     LegendNANA
04:00 10.5 8.5 88 20 13   100.81     LegendNANA
05:00 10.3 8.5 89 23 9   100.91     LegendNANA
06:00 10.2 8.5 89 29 2   100.96     LegendNANA
07:00 9.9 8.4 90 21 4   100.99     LegendNANA
08:00 12.1 9.1 82 14 3   101.03     LegendNANA
09:00 12.9 9.3 79 8 3   101.08     LegendNANA
10:00 13.1 9.0 76 15 3   101.09     LegendNANA
11:00 13.8 9.1 73 11 4   101.11     LegendNANA
12:00 14.4 8.6 68 12 6   101.12     LegendNANA
13:00 16.2 9.4 64 2 6   101.12     LegendNANA
14:00 15.2 8.9 66 34 5   101.13     LegendNANA
15:00 14.3 9.0 70 31 6   101.14     LegendNANA
16:00 14.7 9.3 70 30 3   101.15     LegendNANA
17:00 14.8 8.6 66 18 2   101.15     LegendNANA
18:00 13.3 8.6 73 0 1   101.19     LegendNANA
19:00 12.9 8.5 74 23 9   101.22     LegendNANA
20:00 13.0 7.8 70 23 9   101.24     LegendNANA
21:00 13.4 7.7 68 23 5   101.26     LegendNANA
22:00 13.2 7.4 68 30 5   101.27     LegendNANA
23:00 13.0 7.7 70 29 4   101.29     LegendNANA

Notes on Data Quality.

Legend

  • E = Estimated
  • M = Missing
  • NA = Not Available
  • ‡ = Partner data that is not subject to review by the National Climate Archives
Date modified: